Regional Weather Roundup
Issued by NWS

Home | Current Version | Previous Version | Text Only | Print | Product List | Glossary On
Versions: 1 2 3 4 5 6 7 8 9 10 11 12 13 14 15 16 17 18 19 20 21 22 23 24 25 26 27 28 29 30 31 32 33 34 35 36 37 38 39 40 41 42 43 44 45 46 47 48 49 50
542
ASUS43 KLMK 242110
RWRKY
KENTUCKY REGIONAL WEATHER ROUNDUP
NATIONAL WEATHER SERVICE LOUISVILLE KY
500 PM EDT SAT SEP 24 2016

NOTE "FAIR" INDICATES FEW OR NO CLOUDS BELOW 12,000 FEET
WITH NO SIGNIFICANT WEATHER AND/OR OBSTRUCTIONS TO VISIBILITY.

KYZ001>023-026-027-061>063-070>075-242200-
WESTERN AND SOUTH CENTRAL KENTUCKY

CITY           SKY/WX    TMP DP  RH WIND       PRES   REMARKS
PADUCAH        SUNNY     93  62  35 CALM      30.03F HX  93
HENDERSON      MOSUNNY   91  63  38 NW3       30.04F HX  92
OWENSBORO      MOSUNNY  N/A N/A N/A N7        30.06
HOPKINSVILLE   SUNNY     89  65  44 N7        30.05F HX  91
BOWLING GREEN  SUNNY     89  62  40 N5        30.07F
GLASGOW        SUNNY     86  63  45 CALM      30.08S
$$

KYZ024-025-028>034-038-045-046-053-242200-
NORTH CENTRAL KENTUCKY

CITY           SKY/WX    TMP DP  RH WIND       PRES   REMARKS
LOUISVILLE/SDF MOSUNNY   91  58  32 VRB5      30.06F HX  90
LOUISVILLE/LOU SUNNY     90  60  36 CALM      30.07F
FORT KNOX      SUNNY     88  63  43 VRB6      30.07F
$$

KYZ035>037-039>044-047>052-055>060-089>105-242200-
NORTHEAST KENTUCKY

CITY           SKY/WX    TMP DP  RH WIND       PRES   REMARKS
LEXINGTON      MOSUNNY   89  61  38 N6        30.09F
COVINGTON      SUNNY     83  67  58 N6        30.11F
FRANKFORT      MOSUNNY   91  63  39 N7        30.08S HX  92
$$

KYZ054-064>069-076>088-106>120-242200-
SOUTHEAST KENTUCKY

CITY           SKY/WX    TMP DP  RH WIND       PRES   REMARKS
JACKSON        SUNNY     86  62  44 VRB3      30.11F
LONDON         SUNNY     86  61  42 N6        30.10F
SOMERSET       SUNNY     84  61  45 N5        30.10S
MIDDLESBORO    SUNNY     87  62  42 N7        30.09S
MONTICELLO     CLEAR     88  62  41 N17       30.10F
$$





USA.gov is the U.S. government's official web portal to all federal, state and local government web resources and services.